Location: Arborea
(39.7744°N, 8.5819°E)
Time: 06:41:11
(UTC+00:00)

Cosmos 2322 - Pass Details

Date: 24 October 2021
Orbit: 841 x 854 km, 71.0° (Epoch: 02 December)

Event Time Altitude Azimuth Distance (km) Brightness Sun altitude
Rises 18:41:19 0° 197° (SSW) 3,404 7.0 -25.2°
Reaches altitude 10° 18:43:46 10° 196° (SSW) 2,473 6.2 -25.6°
Enters shadow 18:49:24 78° 117° (ESE) 875 3.5 -26.7°
